Wind_Speed
38 37 43 40 37 32 27 20 19 17 19 12 10 10 10 11 10 9 9 10 9 9 9 9 9 11 12 12 11 11 11 11 12 14 16 17 16 18 17 20 21 23 21
32 29 34 47 45 37 38 22 18 18 19 18 14 14 13 12 11 10 11 10 10 10 10 9 9 9 10 11 11 11 13 13 14 13 13 14 15 15 17 20 21 19 18
23 29 36 49 37 10 24 19 14 17 20 19 18 17 14 13 13 12 13 10 7 8 9 10 10 10 8 10 11 12 12 12 13 14 15 16 16 14 14 16 16 17 17
34 31 35 44 48 49 31 19 13 17 17 17 18 17 17 16 16 15 13 12 10 9 10 12 14 12 10 10 11 13 13 13 13 14 15 16 19 15 15 15 16 14 13
35 31 35 37 40 32 34 26 30 25 18 16 19 20 17 19 18 16 14 14 11 10 12 16 17 15 12 12 11 13 13 15 16 16 16 18 17 17 15 19 17 16 15
16 17 23 29 33 35 12 17 29 33 32 19 20 21 19 19 19 16 11 12 11 10 12 13 12 13 16 16 16 14 13 14 16 17 17 18 17 17 18 18 19 18 17
14 23 26 19 15 12 15 36 34 26 24 22 21 20 20 21 22 21 14 13 14 14 17 17 16 18 19 21 20 17 15 16 16 16 16 17 20 19 17 20 20 20 18
13 15 11 11 9 14 26 28 35 37 31 24 22 22 23 27 22 21 16 16 17 19 21 21 20 19 20 20 13 16 17 16 17 17 17 17 19 19 18 20 20 21 21
7 6 8 8 7 10 21 30 27 29 31 30 24 22 22 24 24 24 24 21 20 21 24 28 24 22 21 20 19 18 20 18 18 18 17 18 19 19 20 19 20 20 19
6 6 9 14 14 13 18 16 18 24 25 21 23 26 25 24 23 23 22 21 25 25 26 26 28 27 23 23 24 23 23 22 22 20 19 19 20 21 21 19 20 20 20
4 5 8 11 14 14 14 17 20 27 29 26 28 27 30 30 27 26 26 26 28 30 32 32 31 29 28 27 27 27 26 23 25 24 21 22 22 20 21 21 19 20 19
4 2 2 4 8 9 9 11 11 7 9 20 20 17 28 35 36 48 39 37 33 37 36 37 36 37 36 31 30 27 29 30 28 29 26 25 25 22 21 22 21 18 18
8 8 9 7 10 8 8 10 15 17 20 23 28 31 33 32 31 31 48 43 41 42 40 40 40 40 40 40 35 32 31 34 33 32 30 27 26 24 24 21 21 20 18
10 12 13 13 14 12 18 19 18 24 28 28 31 33 31 30 32 34 38 42 45 46 46 45 43 42 44 44 41 39 39 36 35 35 33 30 28 28 26 22 21 20 18
10 12 11 11 14 15 19 22 24 28 25 26 28 30 32 32 35 38 41 41 43 44 45 42 41 40 42 44 44 43 39 39 37 35 35 36 30 27 27 24 22 21 22
13 13 13 12 13 15 14 13 14 17 18 17 18 21 23 28 30 32 35 38 39 40 42 40 34 32 33 34 39 41 41 36 39 36 38 38 31 21 26 25 24 21 20
12 13 12 13 15 16 15 12 20 16 17 18 17 19 19 20 24 26 28 31 33 33 32 27 25 26 28 29 33 31 33 31 38 40 39 41 33 31 29 26 24 23 22
12 13 15 16 15 15 16 18 21 19 18 18 20 17 19 23 21 22 25 26 26 26 25 24 25 26 26 26 28 29 31 30 34 37 40 36 39 33 30 27 25 22 21
15 14 15 16 15 15 14 16 18 19 18 18 20 22 19 21 21 22 25 25 24 25 27 28 25 26 24 26 24 26 30 32 33 42 38 32 30 27 26 24 23 23 22
15 14 12 11 11 15 16 16 18 21 15 20 22 22 21 21 22 21 21 21 24 26 26 28 28 24 22 21 15 18 28 25 36 27 26 36 36 28 26 27 25 23 23
13 11 14 7 4 12 14 18 21 24 22 18 23 23 22 20 20 18 21 21 17 21 25 26 24 24 23 25 20 20 26 35 32 32 30 41 35 36 38 40 37 31 28
12 12 11 13 13 18 21 19 24 23 20 19 22 23 22 20 18 15 19 16 16 18 16 23 24 22 19 19 26 29 32 33 36 33 33 30 32 36 26 32 37 27 19
14 12 13 13 13 14 15 20 14 20 18 19 20 21 21 19 18 16 13 15 18 16 8 5 10 12 14 19 25 28 30 27 21 20 20 25 27 31 33 28 27 22 24
15 15 20 18 18 16 17 14 15 17 18 16 16 17 15 16 14 14 14 11 6 5 7 14 13 18 18 17 21 23 20 19 22 22 16 19 19 18 17 17 17 19 21
9 14 22 16 19 14 18 14 14 14 14 13 12 12 13 14 9 11 11 6 3 6 6 7 6 3 9 9 9 9 12 18 18 13 15 18 18 18 19 19 20 19 14
1 15 13 18 22 15 13 20 17 15 13 12 14 13 13 13 11 12 9 9 10 8 8 7 5 2 3 3 4 3 5 7 13 14 16 15 17 16 15 15 15 14 13
Wind_Direction
249 233 228 231 234 228 226 224 246 244 240 242 230 218 211 213 223 225 223 224 227 233 241 257 276 285 284 280 274 269 264 264 271 266 257 271 268 253 263 268 272 267 269
251 237 233 231 229 227 213 209 225 247 238 238 230 228 220 218 222 229 239 236 234 235 242 247 259 278 285 279 272 265 267 266 267 272 275 274 271 269 266 266 268 266 263
236 244 244 234 210 8 156 199 215 241 246 231 232 227 224 224 225 227 235 237 247 257 258 262 269 277 283 273 272 270 269 273 280 279 277 274 269 266 265 267 273 277 271
251 249 246 253 249 262 257 195 216 239 248 240 238 232 230 226 228 233 237 243 243 253 269 274 266 266 268 265 275 278 275 272 271 274 280 277 273 259 268 274 272 274 269
263 253 245 255 256 271 278 244 270 241 234 241 241 242 233 236 235 235 241 245 250 279 293 285 273 268 271 279 270 269 278 285 282 276 276 277 274 271 262 263 268 269 264
348 317 280 269 260 268 246 223 203 221 231 225 235 237 238 239 245 245 236 251 261 282 307 305 287 294 302 278 266 266 266 269 273 274 268 273 276 271 265 268 268 271 270
222 237 263 279 278 274 207 198 204 218 228 222 231 237 237 240 243 242 247 268 289 304 311 303 293 297 296 300 269 260 268 275 280 261 263 265 275 277 269 270 267 265 264
249 248 276 309 282 229 217 221 221 217 217 219 223 226 230 242 239 229 242 268 278 286 295 293 289 293 293 301 287 258 273 279 282 274 263 263 271 275 276 269 266 264 260
217 247 261 200 243 211 211 205 216 215 222 224 223 224 227 233 238 241 245 262 267 279 287 289 290 289 286 289 289 279 266 269 274 279 270 267 269 271 273 273 271 267 263
243 272 242 245 258 247 232 236 217 230 239 241 228 234 243 244 247 250 250 261 275 281 281 281 284 286 280 276 284 282 278 269 268 267 270 269 267 267 271 271 269 267 264
257 276 257 232 246 257 258 256 258 254 242 244 247 250 257 256 256 255 267 265 276 281 280 279 277 278 276 268 266 270 275 274 269 271 267 267 267 264 268 266 265 268 261
291 310 274 320 270 258 242 226 234 225 238 251 240 265 265 260 277 255 264 268 265 271 274 275 274 276 277 267 259 261 264 264 266 262 262 262 264 262 262 263 261 257 257
290 288 275 283 260 303 289 294 283 270 261 258 256 258 267 272 276 255 256 262 264 268 268 266 268 272 272 273 270 267 261 261 262 260 257 256 260 260 255 248 254 250 244
280 275 273 270 264 288 286 281 283 277 273 268 267 270 266 261 262 261 255 259 264 268 267 266 266 263 263 266 266 265 266 258 258 260 257 256 249 248 249 246 245 244 241
284 278 275 275 276 265 256 258 259 267 265 264 263 264 267 264 259 260 263 265 267 268 270 269 268 264 259 262 264 265 263 259 257 254 254 252 247 241 244 241 242 240 236
288 289 289 289 284 283 279 267 266 279 286 280 278 277 275 271 266 263 261 263 263 265 268 270 270 268 267 261 259 261 259 250 264 251 249 241 235 237 241 239 236 236 233
287 288 294 294 287 284 287 300 292 302 299 300 296 289 289 279 272 270 266 262 266 265 264 261 263 261 262 264 263 256 257 251 256 251 240 244 226 234 231 230 235 233 230
315 308 304 304 303 296 285 281 294 298 299 306 306 307 301 294 288 277 272 273 267 261 256 256 258 260 265 267 263 253 248 242 240 228 235 224 221 230 228 233 234 232 228
319 318 316 311 312 311 304 294 297 311 305 308 315 314 311 303 296 294 281 273 268 259 253 253 257 261 267 263 261 255 244 233 229 228 219 221 208 224 234 230 222 227 238
326 324 325 332 350 345 342 319 320 310 303 304 303 313 313 311 297 290 296 280 264 257 256 255 257 261 259 252 261 263 242 237 213 219 226 229 228 221 221 218 221 234 240
319 310 299 304 306 265 255 274 286 288 296 298 297 309 317 314 313 302 297 293 289 267 261 259 259 254 250 240 248 251 235 224 232 236 234 225 226 228 236 236 244 238 237
313 311 299 283 274 264 261 264 274 294 297 291 295 306 312 314 313 314 310 303 293 284 284 257 259 255 254 255 247 236 230 236 232 214 221 245 240 230 227 240 230 211 209
316 312 303 294 287 289 282 265 272 293 298 297 296 299 302 307 312 319 307 318 307 303 289 260 235 243 228 222 210 219 215 204 207 223 240 255 245 246 248 238 224 220 227
321 335 325 312 309 297 287 285 286 295 298 298 297 295 299 313 316 297 300 320 299 295 267 230 189 166 178 181 181 198 219 228 232 221 245 232 228 223 195 191 204 222 231
342 306 319 305 322 303 310 292 278 298 301 297 302 309 301 301 323 302 307 334 209 149 108 78 56 350 238 134 158 172 202 219 216 188 176 172 177 195 211 220 220 225 218
219 309 326 313 327 348 320 316 312 289 289 287 287 293 292 302 285 299 300 267 223 186 190 173 144 136 11 33 323 286 248 224 215 218 216 206 209 206 199 204 212 218 214
Height
3093 3102 3109 3115 3116 3118 3119 3123 3128 3133 3132 3131 3133 3132 3134 3135 3137 3139 3139 3140 3142 3143 3143 3144 3144 3145 3145 3144 3144 3144 3145 3145 3146 3148 3149 3148 3149 3149 3150 3149 3149 3150 3150
3088 3089 3100 3098 3104 3104 3109 3118 3118 3128 3130 3130 3130 3132 3131 3133 3134 3135 3138 3138 3139 3140 3140 3140 3141 3142 3142 3142 3142 3142 3143 3143 3144 3145 3145 3145 3144 3144 3145 3145 3145 3144 3145
3058 3085 3088 3090 3059 3038 3058 3110 3111 3123 3126 3126 3126 3128 3128 3129 3130 3131 3134 3136 3137 3139 3139 3139 3138 3137 3138 3138 3137 3138 3139 3139 3140 3141 3142 3142 3141 3142 3142 3142 3141 3140 3140
3075 3077 3081 3081 3076 3072 3100 3097 3104 3119 3120 3120 3122 3123 3125 3125 3125 3128 3131 3133 3133 3134 3135 3136 3136 3135 3135 3135 3134 3134 3136 3136 3136 3136 3137 3137 3136 3138 3137 3138 3137 3137 3136
3074 3076 3080 3084 3085 3087 3091 3095 3107 3115 3112 3114 3118 3120 3120 3123 3122 3123 3127 3129 3129 3132 3132 3132 3131 3131 3132 3132 3132 3131 3132 3133 3133 3132 3133 3132 3132 3132 3134 3133 3133 3132 3133
3076 3076 3077 3077 3076 3079 3079 3087 3091 3102 3103 3107 3113 3115 3115 3117 3119 3121 3123 3125 3126 3128 3128 3127 3127 3127 3127 3127 3127 3127 3128 3128 3128 3128 3128 3127 3128 3128 3128 3129 3129 3129 3129
3063 3068 3069 3068 3072 3074 3077 3081 3086 3094 3097 3102 3105 3109 3111 3111 3114 3118 3118 3120 3122 3123 3124 3124 3124 3123 3122 3122 3121 3122 3123 3123 3123 3123 3123 3123 3123 3124 3125 3124 3125 3124 3125
3066 3068 3068 3066 3069 3068 3073 3080 3084 3088 3090 3094 3098 3101 3104 3108 3110 3111 3112 3113 3116 3116 3116 3119 3119 3119 3118 3117 3117 3117 3119 3120 3120 3119 3119 3119 3119 3118 3119 3120 3120 3119 3118
3065 3065 3066 3069 3071 3073 3075 3078 3081 3085 3086 3088 3091 3097 3099 3101 3103 3105 3105 3107 3109 3111 3112 3111 3113 3113 3113 3112 3111 3112 3113 3114 3115 3114 3114 3114 3113 3114 3115 3116 3115 3115 3115
3064 3065 3067 3067 3069 3070 3074 3073 3074 3079 3080 3080 3083 3088 3092 3095 3095 3097 3097 3101 3102 3103 3103 3104 3105 3106 3107 3107 3106 3105 3105 3107 3107 3108 3108 3108 3108 3108 3108 3110 3110 3110 3111
3064 3064 3065 3067 3068 3068 3068 3069 3072 3073 3073 3075 3076 3082 3086 3088 3090 3089 3092 3092 3094 3094 3093 3095 3098 3099 3099 3100 3099 3099 3099 3100 3100 3100 3102 3102 3102 3103 3103 3103 3105 3105 3106
3064 3063 3062 3062 3062 3063 3065 3066 3067 3067 3068 3072 3075 3078 3078 3080 3078 3081 3082 3085 3085 3085 3085 3086 3087 3086 3088 3089 3090 3091 3092 3092 3093 3093 3095 3096 3097 3098 3098 3099 3099 3100 3101
3060 3060 3060 3059 3059 3059 3062 3061 3061 3062 3065 3067 3068 3068 3069 3070 3069 3069 3071 3074 3075 3075 3075 3076 3076 3076 3076 3077 3079 3082 3083 3083 3084 3085 3087 3089 3091 3092 3092 3093 3094 3095 3096
3058 3057 3056 3056 3056 3054 3061 3059 3060 3059 3059 3061 3061 3060 3062 3062 3061 3062 3064 3065 3064 3063 3064 3063 3064 3065 3064 3065 3067 3069 3072 3073 3075 3077 3079 3082 3085 3084 3086 3088 3087 3089 3091
3056 3056 3055 3054 3054 3053 3054 3054 3055 3055 3055 3054 3053 3052 3050 3050 3050 3051 3050 3050 3048 3047 3049 3049 3049 3050 3052 3054 3055 3057 3060 3063 3064 3068 3071 3072 3075 3077 3080 3081 3082 3083 3084
3053 3052 3051 3050 3050 3049 3049 3049 3049 3049 3047 3047 3044 3042 3041 3040 3041 3041 3041 3039 3039 3039 3038 3038 3039 3039 3039 3043 3043 3045 3048 3051 3055 3058 3059 3063 3066 3066 3072 3075 3075 3077 3078
3051 3051 3048 3046 3045 3044 3046 3045 3041 3043 3041 3038 3038 3036 3034 3034 3032 3031 3031 3030 3029 3028 3029 3030 3030 3031 3031 3032 3033 3035 3036 3040 3045 3046 3050 3051 3058 3063 3065 3066 3069 3070 3072
3047 3045 3042 3041 3042 3042 3040 3040 3038 3038 3034 3033 3030 3030 3028 3026 3025 3024 3024 3023 3022 3020 3020 3020 3022 3022 3023 3022 3022 3024 3026 3030 3033 3037 3040 3043 3046 3052 3057 3060 3062 3064 3066
3043 3042 3040 3039 3038 3039 3038 3036 3034 3032 3028 3028 3026 3024 3023 3022 3018 3017 3016 3014 3014 3012 3012 3012 3013 3015 3014 3015 3014 3015 3017 3021 3024 3026 3030 3038 3038 3045 3049 3054 3055 3058 3062
3038 3036 3036 3036 3035 3033 3032 3033 3030 3026 3025 3026 3022 3022 3019 3017 3014 3012 3008 3006 3005 3004 3004 3004 3004 3006 3006 3007 3007 3007 3010 3011 3014 3020 3025 3031 3035 3037 3041 3042 3045 3049 3054
3037 3035 3033 3034 3033 3031 3029 3027 3026 3023 3022 3020 3016 3016 3015 3013 3009 3005 3001 2998 2998 2995 2995 2996 2996 2999 2998 3000 3002 3002 3004 3008 3013 3017 3020 3023 3028 3030 3033 3037 3040 3043 3047
3034 3032 3030 3029 3028 3026 3025 3024 3021 3020 3017 3014 3010 3011 3011 3009 3005 2999 2996 2993 2993 2990 2989 2990 2990 2992 2992 2991 2993 2996 2999 3002 3005 3008 3010 3015 3020 3022 3025 3028 3030 3034 3039
3031 3029 3027 3024 3023 3021 3019 3017 3016 3014 3012 3009 3009 3008 3007 3003 3000 2995 2993 2992 2989 2986 2987 2985 2983 2986 2986 2987 2988 2992 2992 2994 2996 3001 3005 3010 3014 3015 3017 3020 3025 3029 3033
3026 3024 3022 3020 3017 3015 3014 3013 3011 3010 3008 3006 3004 3003 3000 2998 2996 2993 2991 2990 2989 2986 2985 2985 2982 2980 2981 2985 2986 2988 2989 2990 2993 2996 2999 3004 3008 3011 3015 3018 3022 3026 3029
3025 3024 3022 3019 3018 3014 3011 3009 3008 3005 3003 3002 3001 2999 2997 2996 2994 2991 2989 2989 2989 2988 2985 2985 2983 2981 2981 2981 2983 2985 2986 2988 2992 2995 2998 3002 3006 3010 3014 3017 3019 3021 3025
3023 3023 3021 3017 3015 3012 3011 3007 3004 3003 3001 3000 2998 2997 2995 2992 2990 2989 2988 2989 2989 2987 2986 2985 2984 2985 2987 2987 2988 2988 2990 2992 2995 2996 2999 3001 3005 3008 3010 3012 3016 3019 3022